Home   Weather   Itabuna   Past weeks

Flag for Brazil Past Weather in Itabuna, Bahia, Brazil — Yesterday and Last 2 Weeks

Now
77 °F

Passing clouds.


Feels Like: 79 °F
Forecast: N/A
Wind: 8 mph from South

Location: Salvador Aeroporto

Current Time: Aug 17, 2017 at 6:36:30 pm

Latest Report: Aug 17, 2017 at 6:00 pm


Visibility: N/A

Pressure: 30.01 "Hg

Humidity: 79%

Dew Point: 70 °F

Location of ItabunaLocation

Past Weather in Itabuna — Graph

°F

Itabuna Temperature Yesterday

Maximum temperature yesterday: 81 °F (at 9:00 am)
Minimum temperature yesterday: 75 °F (at 2:00 am)
Average temperature yesterday: 78 °F

High & Low Weather Summary for the Past Weeks

 TemperatureHumidityPressure
High90 °F (Aug 15, 11:00 am)94% (Aug 4, 3:00 am)30.18 "Hg (Aug 4, 3:00 am)
Low64 °F (Aug 4, 3:00 am)29% (Aug 15, 11:00 am)29.95 "Hg (Aug 4, 3:00 pm)
Average74 °F73%30.06 "Hg
* Reported Aug 2 5:00 pm — Aug 17 5:00 pm, Itabuna. Weather by CustomWeather, © 2017

Note: Actual official high and low records may vary slightly from our data, if they occured in-between our weather recording intervals... More about our weather records

Advertising

Itabuna Weather History for the Previous 24 Hours

Scroll right to see more
 ConditionsComfort  
Time TempWeatherWind HumidityBarometerVisibility
5:00 pm
Thu, Aug 17
79 °FScattered clouds.10 mph74%30.01 "HgN/A
4:00 pm79 °FScattered clouds.9 mph70%29.98 "HgN/A
3:00 pm81 °FScattered clouds.9 mph62%29.98 "HgN/A
2:00 pm81 °FScattered clouds.9 mph62%30.01 "HgN/A
1:00 pm81 °FBroken clouds.8 mph62%30.01 "HgN/A
12:00 pm82 °FScattered clouds.10 mph62%30.04 "HgN/A
11:00 am82 °FScattered clouds.9 mph58%30.07 "HgN/A
10:00 am81 °FScattered clouds.8 mph62%30.07 "HgN/A
9:00 am81 °FScattered clouds.8 mph62%30.07 "HgN/A
8:00 am79 °FPassing clouds.8 mph61%30.07 "HgN/A
7:00 am79 °FPassing clouds.9 mph58%30.04 "HgN/A
6:00 am77 °FScattered clouds.7 mph65%30.04 "HgN/A
5:00 am77 °FPassing clouds.7 mph65%30.01 "HgN/A
4:00 am77 °FPassing clouds.6 mph65%30.01 "HgN/A
3:00 am77 °FPassing clouds.6 mph65%30.01 "HgN/A
2:00 am77 °FPassing clouds.5 mph69%30.01 "HgN/A
1:00 am75 °FPassing clouds.9 mph69%30.04 "HgN/A
12:00 am75 °FPassing clouds.9 mph69%30.04 "HgN/A
11:00 pm
Wed, Aug 16
77 °FPassing clouds.9 mph65%30.07 "HgN/A
10:00 pm77 °FPassing clouds.12 mph65%30.07 "HgN/A
9:00 pm77 °FPassing clouds.8 mph61%30.07 "HgN/A
8:00 pm77 °FPassing clouds.10 mph65%30.07 "HgN/A
7:00 pm77 °FPassing clouds.9 mph61%30.04 "HgN/A
6:00 pm79 °FPassing clouds.8 mph58%30.04 "HgN/A
Weather by CustomWeather, © 2017

See weather overviewHow to use our weather pages